Cosmos 1939 Rocket - Orbit

View from above orbital plane
View from above orbital plane
View from above satellite
View from above satellite

Ground track
Ground track

The orbit data is extracted from the following two-line orbital elements,

1 19046U 88032B   13169.20706141  .00000656  00000-0  59739-4 0  5644
2 19046 097.7012 224.3303 0035575 240.0027 119.7663 14.98154619353681
Epoch (UTC): 18 June 2013 04:58:10
Eccentricity: 0.0035575
inclination: 97.7012°
perigee height: 548 km
apogee height: 597 km
right ascension of ascending node: 224.3303°
argument of perigee: 240.0027°
revolutions per day: 14.98154619
mean anomaly at epoch: 119.7663°
orbit number at epoch: 35368

The dashed part of the orbit path shows where the satellite is in the earth's shadow,  

Developed and maintained by Chris Peat, Heavens-Above GmbH. Please read the updated FAQ before sending e-mail. Imprint. DLR